Location: Pasadena, ca
(34.1243°N, 118.1037°W)
Time: 02:17:58
(UTC-07:00)

Envisat - Pass Details

Date: 12 October 2017
Orbit: 764 x 766 km, 98.2° (Epoch: 23 October)

Event Time Altitude Azimuth Distance (km) Brightness Sun altitude
Exits shadow 20:14:10 25° 23° (NNE) 1,522 4.4 -24.1°
Drops below altitude 10° 20:16:32 10° 5° (N) 2,307 5.5 -24.6°
Sets 20:18:58 0° 358° (N) 3,236 6.4 -25.1°
